#timestamp,LO_Frequency,Hit 
1497970815.3,286047012.4,N
1497970835.1,286047012.2,N
1497970855.9,286047011.9,N
1497970875.7,286047011.2,N
1497970895.5,286047011.1,N
1497970915.4,286047011.2,N
1497970935.2,286047011.6,N
1497970955.0,286047011.2,N
1497970955.9,286047011.2,N
1497970975.8,286047011.2,N
1497970995.6,286047011.5,N
1497971015.5,286047011.5,N
1497971035.3,286047012.3,N
1497971055.1,286047011.8,N
1497971075.9,286047011.6,N
1497971095.7,286047011.2,N
1497971115.9,286047011.0,N
1497971135.7,286047011.2,N
1497971155.6,286047012.2,N
1497971175.4,286047011.5,N
1497971195.3,286047011.3,N
1497971215.1,286047009.3,N
1497971216.0,286047011.9,N
1497971235.8,286047009.8,N
1497971255.7,286047010.3,N
1497971275.5,286047009.1,N
1497971295.3,286047009.8,N
1497971315.2,286047010.3,N
1497971335.0,286047008.0,N
1497971335.9,286047008.0,N
1497971355.8,286047008.4,N
1497971375.6,286047008.0,N
1497971395.4,286047007.9,N
1497971415.3,286047010.4,N
1497971435.1,286047010.8,N
1497971455.8,286047008.3,N
1497971475.7,286047006.1,N
1497971495.5,286047008.7,N
1497971515.4,286047008.4,N
1497971535.2,286047006.1,N
1497971555.0,286047008.7,N
1497971555.9,286047008.7,N
1497971575.8,286047006.6,N
1497971595.6,286047008.7,N
1497971615.4,286047006.2,N
1497971635.3,286047006.3,N
1497971655.1,286047006.5,N
1497971675.9,286047006.6,N
1497971695.7,286047006.6,N
1497971715.5,286047006.4,N
1497971735.4,286047006.3,N
1497971755.2,286047006.3,N
1497971775.0,286047006.1,N
1497971776.0,286047006.1,N
1497971795.8,286047007.0,N
1497971815.6,286047006.1,N
1497971835.5,286047008.2,N
1497971855.3,286047007.7,N
1497971875.1,286047007.8,N
1497971895.9,286047010.2,N
1497971915.7,286047010.8,N
1497971935.6,286047010.2,N
1497971955.4,286047010.8,N
1497971975.2,286047007.8,N
1497971995.1,286047008.1,N
1497971996.0,286047008.1,N
1497972015.8,286047010.7,N
1497972035.6,286047010.2,N
1497972055.5,286047008.0,N
1497972075.3,286047006.1,N
1497972095.2,286047009.2,N
1497972115.0,286047008.4,N
1497972115.9,286047008.4,N
1497972135.7,286047008.8,N
1497972155.6,286047006.3,N
1497972175.4,286047006.8,N
1497972195.3,286047006.8,N
1497972215.1,286047007.0,N
1497972216.0,286047007.0,N
1497972235.8,286047006.1,N
1497972255.7,286047008.5,N
1497972275.5,286047008.4,N
1497972295.3,286047006.1,N
1497972315.2,286047007.9,N
1497972335.0,286047010.4,N
1497972335.9,286047010.4,N
1497972355.8,286047008.0,N
1497972375.6,286047007.7,N
1497972395.4,286047008.0,N
1497972415.3,286047008.7,N
1497972435.1,286047009.1,N
1497972455.8,286047008.5,N
1497972475.7,286047007.8,N
1497972495.5,286047007.8,N
1497972515.4,286047008.1,N
1497972535.2,286047008.9,N
1497972555.0,286047008.7,N
1497972555.9,286047008.7,N
1497972575.8,286047006.7,N
1497972595.6,286047006.2,N
1497972615.4,286047007.9,N
1497972635.3,286047006.2,N
1497972655.1,286047006.2,N
1497972675.9,286047008.7,N
1497972695.7,286047006.8,N
1497972715.5,286047009.0,N
1497972735.4,286047008.8,N
1497972755.2,286047008.3,N
1497972775.0,286047006.2,N
1497972776.0,286047006.2,N
1497972795.8,286047009.2,N
1497972815.6,286047006.6,N
1497972835.5,286047006.8,N
1497972855.3,286047008.7,N
1497972875.1,286047008.9,N
1497972895.9,286047008.6,N
1497972915.7,286047009.0,N
1497972935.6,286047006.3,N
1497972955.4,286047006.6,N
1497972975.2,286047006.1,N
1497972995.1,286047008.1,N
1497973015.6,286047011.9,N
1497973035.4,286047010.7,N
1497973055.2,286047008.2,N
1497973075.1,286047010.6,N
1497973076.0,286047010.6,N
1497973095.8,286047007.8,N
1497973115.7,286047007.8,N
1497973135.5,286047010.0,N
1497973155.3,286047010.0,N
1497973175.2,286047009.9,N
1497973195.0,286047010.4,N
1497973195.9,286047010.4,N
1497973215.8,286047010.6,N
1497973235.6,286047008.1,N
1497973255.4,286047008.0,N
1497973275.3,286047008.3,N
1497973295.1,286047010.6,N
1497973315.8,286047010.5,N
1497973335.7,286047010.8,N
1497973355.5,286047010.1,N
1497973375.3,286047010.2,N
1497973395.2,286047010.1,N
1497973415.0,286047009.9,N
1497973415.9,286047009.9,N
1497973435.8,286047010.0,N
1497973455.6,286047010.0,N
1497973475.4,286047009.8,N
1497973495.3,286047009.3,N
1497973515.1,286047009.9,N
1497973535.8,286047009.6,N
1497973555.7,286047010.5,N
1497973575.5,286047010.0,N
1497973595.4,286047009.6,N
1497973615.2,286047010.5,N
1497973635.0,286047009.3,N
1497973635.9,286047009.3,N
1497973655.8,286047010.5,N
1497973675.6,286047010.5,N
1497973695.4,286047010.2,N
1497973715.3,286047009.9,N
1497973735.1,286047010.4,N
1497973755.9,286047009.8,N
1497973775.7,286047010.2,N
1497973795.5,286047009.8,N
1497973815.4,286047013.5,N
1497973835.2,286047009.9,N
1497973855.0,286047010.6,N
1497973855.9,286047010.6,N
1497973875.8,286047009.6,N
1497973895.6,286047010.5,N
1497973915.5,286047010.6,N
1497973935.3,286047010.0,N
1497973955.1,286047010.0,N
1497973975.9,286047010.2,N
1497973995.7,286047010.5,N
1497974015.5,286047009.9,N
1497974035.4,286047009.9,N
1497974055.2,286047007.8,N
1497974075.1,286047010.3,N
1497974076.0,286047010.3,N
1497974095.8,286047010.8,N
1497974115.6,286047010.3,N
1497974135.5,286047010.2,N
1497974155.3,286047010.2,N
1497974175.1,286047010.1,N
1497974195.9,286047010.3,N
1497974215.7,286047010.3,N
1497974235.6,286047008.0,N
1497974255.4,286047010.6,N
1497974275.2,286047008.0,N
1497974295.1,286047008.3,N
1497974296.0,286047008.3,N
1497974315.8,286047010.7,N
1497974335.6,286047010.2,N
1497974355.5,286047012.0,N
1497974375.3,286047010.0,N
1497974395.2,286047009.7,N
